RH
27 30 35 40 35 36 23 22 16 16 26 28 27 25 30 41 44 42 42 34 37 37 35 36 39 40 40 40 40 37 22 20 20 23 22 20 18 18 18 12 9 10 10 10 10 10 10 10 10
43 42 44 42 47 42 25 21 28 24 20 24 25 25 24 38 46 43 41 36 36 36 37 38 39 39 40 40 40 40 38 26 22 22 24 24 21 18 17 20 21 20 17 15 13 12 12 12 11
44 46 47 49 50 45 27 24 36 32 30 28 25 24 23 36 38 38 39 38 37 36 34 36 38 40 40 40 40 41 40 39 32 27 24 24 26 27 26 22 19 18 18 18 18 18 18 17 17
59 48 50 52 48 39 47 34 36 33 32 29 26 24 23 26 38 43 41 37 36 35 34 34 37 40 40 40 39 40 41 41 40 37 29 31 26 26 28 29 30 30 30 30 30 29 29 28 27
74 66 59 53 47 38 50 48 37 36 37 31 28 25 23 24 36 43 41 34 33 34 34 34 35 38 40 40 39 40 41 41 41 40 40 36 34 39 32 28 31 32 32 32 31 29 29 29 29
90 72 69 60 46 40 50 55 42 39 37 34 29 25 24 24 25 38 41 41 38 33 34 35 35 36 38 39 39 40 41 42 42 42 41 41 42 41 43 45 40 32 30 31 33 35 37 39 39
98 85 77 66 47 44 49 54 45 39 38 33 30 28 21 26 23 28 38 40 38 38 34 34 35 36 36 37 38 38 39 41 42 42 42 42 42 42 43 44 45 45 44 43 41 36 33 32 35
95 99 90 77 58 47 49 57 52 43 43 37 34 44 29 27 26 24 27 33 35 35 32 34 35 36 36 36 36 37 38 39 41 42 42 42 44 44 44 44 45 46 46 46 45 45 44 42 40
94 100 95 70 56 47 49 58 60 47 42 42 40 41 48 39 35 27 22 26 25 31 30 32 37 36 36 36 36 36 36 37 39 41 43 43 44 44 45 45 45 46 47 47 48 48 48 47 46
99 100 79 62 54 48 54 63 64 48 42 41 45 39 46 46 47 41 45 47 44 44 45 45 45 38 36 36 36 36 36 37 37 38 39 41 42 43 44 44 45 45 45 45 46 46 47 48 48
100 95 83 80 66 57 56 74 74 53 44 44 54 39 39 50 49 47 51 48 43 44 44 44 43 42 42 42 40 39 38 38 39 40 40 39 39 40 42 43 44 45 45 45 45 45 45 45 46
77 99 91 93 75 72 65 82 86 66 53 47 52 65 43 45 52 43 46 47 38 33 32 30 29 30 34 39 42 44 45 45 42 40 42 43 42 41 43 46 50 54 56 57 55 52 49 47 46
96 86 98 88 82 97 83 85 92 68 57 49 45 59 50 47 59 54 53 42 38 35 33 32 29 27 26 26 28 30 36 40 42 46 47 46 47 50 55 60 62 62 61 61 64 64 64 62 58
88 100 99 100 90 99 96 94 98 64 58 52 48 49 47 42 48 56 51 46 41 36 34 33 31 32 33 33 30 29 28 26 25 32 38 42 48 53 55 56 53 50 46 43 43 45 49 54 59
89 96 98 98 96 97 100 100 96 78 64 54 58 60 42 40 42 49 46 47 42 38 38 36 34 35 35 37 37 36 33 25 22 33 42 41 41 40 42 44 43 38 36 35 32 31 32 35 41
83 100 98 95 89 97 99 83 97 96 78 77 71 74 53 40 34 35 38 40 41 40 39 39 37 37 38 38 39 38 34 26 20 24 32 38 39 44 42 37 38 39 41 38 32 35 36 32 36
90 72 98 82 80 71 82 64 69 99 78 75 79 67 59 47 43 40 37 36 35 38 40 40 39 39 39 39 39 37 34 26 20 22 26 34 37 41 40 37 37 41 42 43 46 44 45 45 43
63 56 78 78 70 81 80 80 66 90 74 65 62 59 55 52 51 47 44 40 32 28 28 31 33 33 32 32 31 29 26 19 16 18 22 30 33 35 37 39 45 50 53 50 49 43 40 48 53
60 77 80 82 81 80 83 86 62 79 89 67 58 56 58 55 52 44 44 43 39 36 29 26 25 24 24 22 21 20 20 20 18 17 18 20 29 40 40 46 44 42 37 38 38 41 48 56 64
68 77 73 79 72 77 83 84 63 84 74 68 52 44 45 54 53 42 38 39 40 35 30 30 32 31 30 30 29 27 24 21 19 16 13 13 15 17 22 24 43 44 41 40 40 32 34 38 51
81 56 66 62 76 84 84 80 73 45 54 60 52 48 45 47 42 38 37 38 39 36 36 36 35 36 35 32 29 26 24 21 18 15 13 13 14 15 20 20 19 20 22 27 26 26 29 47 40
85 81 76 71 70 81 81 81 53 48 45 46 48 45 44 43 41 37 37 34 35 38 37 34 32 26 22 22 23 22 18 16 14 12 12 13 16 18 21 23 25 28 31 34 36 37 36 36 41
80 78 78 76 65 68 75 75 54 44 31 32 32 37 42 44 42 41 38 36 36 33 28 25 22 18 17 16 16 15 15 14 14 14 14 16 19 19 18 19 20 24 27 29 26 22 21 32 41
76 75 68 67 74 80 68 70 55 39 23 26 20 24 33 38 37 38 37 35 27 24 24 22 18 16 16 15 13 13 14 15 17 19 20 19 18 18 18 17 17 18 20 22 25 27 31 39 78
87 74 91 89 89 87 63 62 46 31 27 24 23 20 20 25 29 32 35 32 29 25 20 17 16 16 14 14 16 17 19 19 20 20 19 17 16 16 18 19 22 24 28 30 36 34 36 38 36
97 80 72 86 97 79 62 59 42 29 25 23 21 18 17 22 23 29 32 30 30 26 19 16 17 18 19 21 21 21 21 19 17 16 16 16 18 23 28 32 33 34 38 40 37 36 36 39 40
86 80 67 62 73 77 58 49 36 31 28 23 17 25 20 20 30 36 39 33 27 26 25 24 23 23 22 21 19 18 17 16 16 15 18 24 27 28 27 25 26 26 25 26 27 30 35 39 42
77 74 74 69 80 81 60 55 41 33 27 26 21 15 25 30 36 36 32 31 31 29 26 24 23 22 22 20 19 18 18 20 23 26 28 24 20 23 19 17 16 17 21 25 29 33 36 40 42
87 84 78 73 72 78 79 48 37 35 36 29 27 26 32 35 35 34 33 32 31 29 28 28 27 25 24 24 24 24 27 30 31 30 24 23 27 27 27 25 26 35 41 43 40 40 40 39 38
95 85 83 76 90 81 74 60 45 41 33 33 37 38 41 44 42 39 34 33 33 36 40 40 39 36 35 35 35 34 33 33 32 26 24 29 33 34 34 36 39 42 45 42 28 27 28 28 25
Wind_Speed
22 22 21 20 14 11 19 12 17 25 24 22 19 12 11 20 24 16 14 21 15 15 9 11 10 11 10 11 15 19 18 13 12 12 11 11 12 12 12 13 12 12 11 12 11 10 10 9 8
22 23 21 21 11 17 19 13 17 17 21 19 18 13 12 17 21 16 16 21 19 16 12 11 9 10 9 8 10 14 17 19 15 13 12 13 14 14 14 13 12 12 12 12 11 11 10 10 9
23 23 20 17 21 21 12 18 14 18 16 17 18 14 15 15 18 18 19 20 19 16 14 12 11 10 7 6 7 10 13 16 19 17 16 15 15 15 15 16 15 15 14 14 13 13 13 13 13
22 22 21 21 19 21 11 18 16 17 17 17 17 20 19 16 17 21 20 21 20 18 15 13 13 12 8 5 4 5 7 11 16 18 18 18 17 15 15 15 15 15 15 15 15 15 15 15 14
23 22 22 23 23 27 13 12 22 20 16 17 17 20 20 19 16 20 20 24 21 19 17 14 15 14 12 9 7 4 2 5 10 15 17 18 17 17 16 14 13 13 14 14 14 14 14 13 12
25 25 18 24 29 29 20 10 17 19 15 15 16 21 24 24 21 18 18 19 20 21 19 17 17 16 14 12 9 7 4 0 3 10 14 15 16 15 15 15 15 14 12 12 12 12 12 13 13
34 30 27 26 30 32 25 12 12 14 15 19 18 19 23 26 27 24 20 17 18 22 23 20 20 19 17 15 13 10 8 5 3 1 6 10 12 11 11 12 11 11 12 12 12 12 11 11 11
37 36 31 28 30 35 26 16 12 14 12 19 20 16 21 21 24 26 26 24 20 19 19 21 23 21 19 16 15 13 11 10 8 6 5 2 1 7 8 8 8 6 6 6 6 7 8 10 10
44 41 41 39 33 38 29 20 13 15 14 18 21 16 17 16 19 22 22 22 23 23 20 19 22 23 20 18 16 14 13 13 12 11 10 9 8 6 5 6 7 6 7 7 7 7 7 8 8
44 44 48 50 41 41 28 21 17 13 16 14 17 20 16 17 18 18 19 17 17 17 17 19 20 21 19 17 15 15 14 13 13 14 14 14 13 12 12 10 10 10 11 11 12 12 12 13 13
32 44 43 40 45 43 40 22 14 15 18 13 14 16 16 17 18 19 19 17 16 14 13 12 13 14 14 14 14 14 14 14 15 15 15 16 16 15 15 14 13 13 14 14 15 16 16 17 17
38 44 38 32 35 47 54 35 20 15 15 16 18 15 20 19 20 19 22 18 15 13 13 11 10 10 11 11 12 12 12 13 14 16 16 16 16 16 16 16 15 15 15 17 18 19 19 19 20
34 36 32 30 27 36 49 48 32 16 14 16 16 19 15 17 17 18 20 19 19 14 12 11 10 9 10 10 11 13 14 14 15 16 17 17 17 18 17 17 17 18 18 20 20 20 20 21 22
32 27 25 32 31 34 32 46 39 17 13 15 15 18 18 19 16 18 19 19 18 16 14 13 12 12 12 12 12 14 15 16 17 18 19 19 19 19 19 19 19 19 19 20 22 22 23 23 23
22 26 22 25 29 26 32 26 47 17 14 14 17 18 23 21 22 18 17 17 18 19 19 17 17 18 17 17 18 17 18 19 19 17 18 19 20 21 21 21 21 21 22 22 24 25 26 26 26
17 22 21 22 22 24 19 24 40 31 17 17 16 16 19 22 22 24 24 23 23 23 22 22 22 22 21 21 22 22 22 21 20 20 20 20 20 22 22 23 24 25 26 27 27 27 27 26 26
27 24 28 22 28 27 26 22 24 27 23 22 20 17 18 22 23 24 25 25 25 26 26 27 26 26 26 26 26 26 27 25 23 23 23 23 23 25 27 27 27 28 29 29 28 28 28 28 27
40 34 34 26 31 29 27 20 17 26 31 22 19 21 23 23 22 24 25 25 26 26 27 26 27 28 29 29 30 30 30 28 27 25 25 26 27 29 30 31 30 30 31 31 31 32 31 32 31
30 26 32 27 26 30 27 24 21 18 26 23 21 24 27 27 29 29 31 31 31 31 28 27 28 29 30 30 30 31 30 30 29 29 29 29 30 30 32 33 33 34 36 36 36 35 35 34 34
24 22 20 28 19 19 26 28 26 27 24 26 26 28 29 34 35 32 30 30 31 31 30 30 30 30 30 31 32 33 32 33 33 32 32 32 32 33 35 35 36 37 39 39 39 39 38 37 36
19 26 20 21 21 23 17 30 32 32 35 36 29 27 29 30 30 30 32 33 32 31 31 32 31 33 33 34 34 34 35 35 35 34 32 31 34 34 36 37 39 38 39 39 38 38 37 36 37
18 18 19 15 19 18 21 7 27 35 35 37 37 34 31 31 30 29 28 28 28 30 32 33 33 33 33 32 32 34 35 34 34 34 34 32 32 33 34 35 36 37 38 38 37 38 38 38 38
11 14 16 16 12 13 15 10 29 20 30 37 38 39 35 36 36 33 31 30 32 33 33 34 35 35 35 34 34 35 34 34 33 33 33 33 32 32 31 31 32 32 32 33 34 34 34 35 37
14 14 8 6 12 8 16 17 16 23 31 27 25 32 36 39 38 37 36 34 34 34 35 37 37 36 36 36 35 34 34 33 33 32 32 32 32 32 32 33 32 33 33 34 35 35 34 34 33
18 16 4 1 3 5 10 13 35 13 19 22 24 26 27 38 40 40 37 34 35 35 35 36 37 36 35 34 32 32 33 33 33 33 33 33 32 32 33 34 34 34 36 37 37 38 35 35 37
26 22 8 5 4 3 7 15 22 18 21 26 20 25 31 27 30 34 34 34 34 33 33 32 31 30 30 30 32 32 33 33 32 31 32 33 34 36 36 37 36 36 36 36 38 38 37 37 37
29 34 16 5 2 0 8 18 31 31 30 22 24 22 26 29 26 26 27 27 26 25 25 25 26 28 29 30 30 31 31 31 32 32 33 33 34 34 35 35 35 35 35 35 36 36 35 35 34
28 28 15 9 4 4 7 15 20 10 12 20 26 25 24 24 23 22 22 22 22 22 23 24 26 27 29 29 30 31 32 32 32 32 31 31 31 31 31 30 29 29 29 31 32 32 32 32 32
26 27 19 12 8 4 1 6 6 10 14 18 15 22 24 20 19 18 20 20 20 21 22 25 27 28 29 30 30 31 31 31 31 30 29 29 28 29 29 28 27 26 28 29 29 29 29 29 28
34 29 33 17 7 10 5 16 13 15 17 15 15 16 20 20 19 19 20 18 19 22 24 27 28 29 30 30 30 29 29 29 30 29 28 26 27 28 27 27 28 28 29 28 29 28 26 26 25
Wind_Direction
207 201 201 197 196 212 211 215 209 208 215 218 227 201 211 191 190 182 170 172 166 162 148 131 120 117 96 67 52 48 48 49 49 50 51 52 55 56 58 62 63 64 64 64 62 61 61 60 58
203 193 197 202 211 207 208 203 184 189 207 224 225 210 208 198 192 192 179 176 170 164 165 148 141 141 119 85 60 46 44 47 51 54 59 59 57 56 57 61 61 59 58 59 58 57 56 55 52
202 193 198 207 214 210 207 195 181 181 192 199 212 202 203 179 187 184 174 184 178 168 170 167 166 163 145 115 77 54 35 37 43 50 53 55 58 59 58 58 59 59 58 58 57 57 56 55 54
200 200 206 213 211 206 172 187 179 180 190 202 218 225 217 204 170 167 175 181 184 179 178 182 184 183 177 158 125 78 49 40 29 37 49 54 52 52 54 57 58 58 58 57 56 56 56 56 54
206 201 213 219 211 208 180 168 178 185 187 211 222 229 224 209 179 167 173 185 193 193 190 194 197 193 197 191 177 155 87 39 27 29 34 42 48 49 48 50 53 54 54 54 52 52 50 50 48
205 204 214 217 213 211 198 193 184 186 193 212 222 226 230 222 208 185 174 185 192 201 203 203 202 203 206 206 206 199 203 151 32 17 19 29 39 43 42 43 45 46 44 43 41 41 40 41 39
211 208 223 217 215 215 207 186 188 183 190 217 223 224 225 221 216 210 197 190 194 202 205 211 210 211 211 215 218 223 236 231 238 178 3 6 18 33 29 26 26 33 34 37 37 36 32 29 26
214 223 226 220 220 223 208 192 202 188 170 203 210 211 217 215 209 211 214 210 211 207 209 211 216 218 217 219 226 230 235 239 240 236 228 231 343 1 5 2 359 355 357 360 6 10 13 11 6
209 219 223 221 215 224 208 205 206 207 176 183 204 209 207 211 214 214 212 211 216 217 215 214 217 219 220 223 230 237 239 239 243 248 254 257 255 254 273 295 300 291 294 298 299 303 312 318 324
216 215 216 220 216 225 212 210 200 197 177 184 202 212 205 215 210 199 187 189 200 203 205 210 211 216 220 227 236 243 247 250 252 254 255 258 262 267 269 273 282 284 288 290 293 294 294 295 297
203 212 221 226 222 219 215 213 219 190 176 177 199 221 207 205 203 196 191 189 184 184 183 187 197 209 218 226 234 242 247 250 252 255 258 262 263 265 266 268 271 277 283 286 288 290 290 290 290
213 217 235 224 229 217 222 214 217 202 170 175 191 204 225 207 209 208 198 196 192 190 195 199 204 212 221 230 236 240 247 252 255 256 259 260 262 263 263 267 273 277 282 285 286 285 286 288 288
209 223 214 220 233 208 216 218 219 191 171 182 194 204 205 209 206 206 204 198 198 200 203 201 206 213 227 235 243 250 251 253 254 258 260 261 262 263 264 268 273 276 280 281 282 283 286 288 289
211 209 213 210 219 228 226 219 213 172 165 185 197 208 203 210 211 214 213 209 208 209 213 221 218 224 231 239 248 254 261 262 260 258 258 260 262 267 270 273 275 279 280 281 284 286 286 286 287
211 209 215 216 228 225 219 230 220 186 187 176 190 202 216 213 210 215 222 225 224 228 230 235 230 235 243 250 255 261 267 270 262 258 259 263 267 268 268 272 275 277 280 284 287 289 287 285 284
185 199 194 201 221 238 237 245 223 211 198 177 174 198 212 217 216 218 223 227 234 239 248 247 247 248 250 255 259 263 270 269 264 262 261 264 267 269 270 273 275 277 281 285 288 289 288 288 286
196 203 207 209 220 242 232 250 231 209 201 180 182 202 211 217 219 221 224 227 233 240 246 251 253 256 255 257 259 262 267 270 266 262 262 264 267 268 270 273 274 277 280 282 285 287 286 284 284
191 204 204 201 204 217 225 230 247 202 189 203 197 207 220 229 234 236 236 236 236 238 237 242 251 256 260 262 265 268 270 271 273 272 271 268 266 266 270 272 274 276 278 282 284 285 283 282 282
199 200 197 190 205 208 215 217 254 249 211 214 218 233 236 242 247 247 247 251 252 252 248 242 245 250 255 259 261 263 266 269 271 275 274 272 272 272 273 275 276 279 279 280 281 282 282 282 283
207 200 194 200 208 212 215 225 244 233 251 244 245 237 239 243 246 246 245 246 248 251 253 255 255 257 259 261 263 266 267 267 268 270 272 273 271 270 271 274 276 276 278 280 281 282 280 278 278
194 207 203 210 197 204 218 234 236 234 231 233 232 232 233 236 243 245 247 248 249 252 255 259 262 266 267 268 269 269 269 270 272 272 270 269 270 270 270 271 273 274 275 277 279 281 282 283 281
187 193 209 210 207 214 222 260 248 243 236 229 238 232 232 234 238 241 243 245 248 253 258 261 263 266 268 269 270 271 271 270 271 274 275 275 274 273 274 276 277 276 277 279 280 280 281 281 283
176 187 200 217 234 229 214 228 254 240 239 232 236 238 236 236 241 246 248 250 253 255 257 260 263 267 269 271 272 271 270 271 271 272 274 276 276 277 276 274 273 274 274 275 277 280 280 280 278
182 184 197 227 204 246 233 217 269 244 239 242 242 242 240 241 246 246 248 251 254 257 259 260 262 265 267 269 271 270 270 271 271 271 271 272 273 273 274 274 275 277 278 279 279 281 282 279 277
202 187 110 98 203 229 207 223 242 243 248 255 243 236 241 241 241 244 248 252 257 260 260 261 263 264 265 266 266 265 266 267 268 270 272 273 273 274 273 274 275 277 278 279 280 282 282 281 281
199 188 173 179 196 198 169 231 246 262 261 256 252 236 233 240 243 245 249 254 258 258 257 257 259 261 262 262 263 263 265 266 268 270 271 273 273 273 274 275 275 274 274 275 276 277 277 279 281
191 204 216 121 137 351 221 252 262 265 269 264 251 248 236 230 234 243 252 255 252 249 250 253 255 257 258 260 263 266 268 270 272 273 275 276 277 277 276 273 271 271 271 270 272 275 277 279 282
199 200 202 199 130 237 245 253 256 287 295 267 252 249 241 236 235 240 243 244 247 247 249 252 256 259 262 264 266 268 270 273 275 274 276 278 279 280 280 278 275 271 270 272 273 276 279 280 281
197 207 206 199 220 182 240 246 276 307 278 247 263 246 235 233 236 243 246 245 246 252 258 261 264 266 268 269 270 270 270 271 272 273 276 277 279 280 280 278 276 276 281 280 278 278 279 280 282
218 221 220 216 215 227 246 259 274 299 308 275 234 240 233 231 235 244 243 250 259 263 267 270 273 275 275 274 272 270 268 268 271 273 274 276 280 279 279 279 281 283 282 282 282 281 281 281 281